Home > Time Zones > World Clock > Weather > U.S.A. > Erie > Past weeks

Flag for U.S.A. Weather past 2 weeks in Erie, Pennsylvania, U.S.A.

Now
58 °F

Sunny.


Feels Like: 58 °F
Forecast: 54 / 74 °F
Wind: No wind

Location: Erie International Airport

Current Time: Sep 23, 2014 at 8:27:10 PM

Latest Report: Sep 23, 2014 at 7:51 PM


Visibility: 10 mi

Pressure: 30.37 "Hg

Humidity: 75%

Dew point: 50 °F

Location of ErieLocation

Historic Weather in Erie — Graph

°F

Erie temperature yesterday

Maximum temperature yesterday: 56 °F (at 12:51 AM)
Minimum temperature yesterday: 47 °F (at 11:51 PM)
Average temperature yesterday: 54 °F

Past Weeks' High & Low Weather Summary

 TemperatureHumidityPressure
High81 °F (Sep 10, 12:51 PM)94% (Sep 11, 6:00 AM)30.37 "Hg (Sep 11, 6:00 AM)
Low46 °F (Sep 14, 6:51 AM)44% (Sep 14, 11:51 AM)29.63 "Hg (Sep 11, 2:51 AM)
Average61 °F69%30.07 "Hg
* Reported Sep 8 6:51 PM — Sep 23 6:51 PM, Erie, Weather by CustomWeather, © 2014

Note: Actual official high and low records may vary slightly from our data, if they occured in-between our weather recording intervals... More about our weather records

Advertising

Erie weather history for previous 24 hours

 ConditionsComfort  
Time TempWeatherWind HumidityBarometerVisibility
6:51 PM
Sep 23
63 °FSunny.3 mph60%30.37 "Hg10 mi
5:51 PM65 °FSunny.3 mph59%30.36 "Hg10 mi
4:51 PM65 °FSunny.3 mph61%30.36 "Hg10 mi
3:51 PM65 °FSunny.8 mph61%30.36 "Hg10 mi
2:51 PM66 °FSunny.8 mph56%30.35 "Hg10 mi
1:51 PM65 °FSunny.10 mph59%30.35 "Hg10 mi
12:51 PM64 °FSunny.9 mph58%30.36 "Hg10 mi
11:51 AM65 °FSunny.6 mph56%30.36 "Hg10 mi
10:51 AM62 °FSunny.8 mph60%30.36 "Hg10 mi
9:51 AM57 °FPassing clouds.7 mph69%30.36 "Hg10 mi
8:51 AM52 °FScattered clouds.8 mph75%30.34 "Hg10 mi
7:51 AM47 °FPassing clouds.7 mph83%30.33 "Hg10 mi
6:51 AM46 °FClear.8 mph83%30.32 "Hg10 mi
5:51 AM46 °FClear.7 mph83%30.30 "Hg10 mi
4:51 AM47 °FClear.7 mph80%30.30 "Hg10 mi
3:51 AM47 °FClear.7 mph83%30.28 "Hg10 mi
2:51 AM47 °FClear.7 mph80%30.29 "Hg10 mi
1:51 AM47 °FClear.7 mph80%30.28 "Hg10 mi
12:51 AM47 °FClear.7 mph80%30.27 "Hg10 mi
11:51 PM
Sep 22
47 °FClear.6 mph80%30.27 "Hg10 mi
10:51 PM48 °FPassing clouds.5 mph80%30.26 "Hg10 mi
9:51 PM49 °FPassing clouds.6 mph77%30.24 "Hg10 mi
8:51 PM55 °FPassing clouds.5 mph57%30.23 "Hg10 mi
Weather by CustomWeather, © 2014

See weather overviewHow to use our weather pages